GFSFLT2_sfc_dewp_000.txt.gz
Dewpoint
65 65 65 65 64 64 64 66 67 68 67 66 66 66 66 65 64 64 64 64 65 65 64 64 64 65 64 64 64 65 65 65
64 64 63 61 61 64 64 64 65 67 66 65 64 64 64 63 63 63 62 61 61 61 63 63 64 63 63 63 63 63 62 62
64 64 64 61 59 61 64 64 65 66 66 65 63 61 61 61 61 62 61 61 59 59 59 61 60 59 61 61 61 61 61 60
60 62 62 62 60 62 62 63 63 63 64 64 62 60 59 59 61 61 60 60 60 59 59 59 57 55 56 56 59 59 59 57
56 58 60 58 59 62 62 62 62 62 61 60 59 58 58 59 58 58 57 58 56 57 56 55 55 55 55 55 56 56 58 59
55 57 57 57 57 61 60 60 61 60 59 58 58 57 56 57 56 57 56 56 55 55 54 54 52 53 54 54 54 55 55 56
53 55 57 56 53 52 51 52 54 53 54 54 58 57 56 57 56 56 55 55 55 54 54 57 56 56 56 55 55 55 56 56
52 53 55 55 53 51 49 48 48 50 52 53 55 55 54 55 55 55 53 53 52 51 50 50 50 52 54 56 57 57 57 57
47 50 51 50 53 51 49 47 46 48 50 51 52 49 46 47 48 51 50 51 51 51 48 49 48 50 49 50 52 53 53 55
41 45 48 47 50 51 50 47 45 46 49 49 49 49 47 46 46 45 43 45 47 39 40 40 40 41 42 43 46 49 46 45
32 40 41 41 42 44 42 43 41 43 49 49 48 47 46 45 47 45 42 43 41 40 39 39 37 38 38 39 38 37 37 40
32 29 32 38 39 37 37 39 39 40 46 48 47 45 44 41 45 44 42 42 41 41 38 39 39 38 38 37 38 37 39 38
33 33 33 35 35 35 34 34 37 38 40 46 46 45 43 40 41 44 43 41 41 39 38 38 37 38 37 37 37 37 36 36
31 31 33 34 34 35 34 34 35 36 37 39 45 44 41 39 39 41 41 41 39 39 40 39 39 39 37 37 34 35 36 37
32 31 32 35 36 34 35 36 36 36 36 37 40 42 42 41 39 40 39 39 38 38 37 37 36 38 38 37 35 33 36 37
33 34 34 35 37 35 33 32 32 33 34 35 38 41 41 40 40 40 39 40 39 40 39 39 39 36 39 40 39 38 36 32
37 37 36 37 38 38 37 34 35 35 36 34 35 38 40 41 40 40 41 41 37 34 34 32 36 35 35 36 36 37 36 34
40 39 39 39 40 39 39 37 36 36 36 37 39 37 37 39 38 37 36 35 34 33 32 29 30 31 31 34 35 32 30 32
39 39 40 41 41 41 41 40 39 37 36 37 38 35 35 34 34 35 34 33 34 34 34 34 32 30 29 31 32 33 34 33
39 38 37 37 39 39 40 40 41 41 38 38 36 36 35 34 34 35 36 37 36 36 37 37 35 32 30 31 31 32 34 31

GFSFLT2_sfc_dewp_006.txt.gz
Dewpoint
62 63 64 65 65 65 66 66 67 66 66 66 66 66 65 64 63 63 62 62 61 61 62 63 63 62 62 61 62 64 62 62
61 61 61 61 61 64 65 65 66 66 65 64 64 64 63 62 60 61 61 61 60 60 60 60 59 58 58 59 60 61 60 61
61 61 61 59 58 61 64 65 66 66 65 64 62 59 57 57 60 61 60 59 59 59 59 58 57 56 57 57 57 57 58 58
62 61 61 59 59 59 60 61 62 63 63 61 59 57 56 57 59 60 59 58 58 58 57 56 53 52 53 55 54 54 55 56
63 62 61 60 60 60 59 59 60 60 61 60 59 58 56 57 56 56 55 57 54 54 54 53 52 52 53 53 54 54 55 55
61 61 60 59 59 60 59 59 59 59 59 59 57 56 54 55 55 55 55 55 53 53 53 53 53 53 53 53 53 54 55 56
56 57 57 56 58 58 58 59 59 59 58 57 57 55 54 54 55 55 55 54 53 53 51 50 49 50 51 52 53 53 54 54
54 55 56 54 52 52 53 55 56 57 56 57 56 56 55 54 54 54 53 53 52 50 48 46 46 47 48 47 47 48 51 50
52 54 55 53 52 50 49 49 50 51 52 52 53 55 54 53 53 53 53 52 49 49 46 45 43 43 42 43 43 44 49 46
50 51 53 52 52 52 50 49 48 47 49 50 52 53 51 48 49 50 52 49 49 48 39 38 39 39 40 39 40 40 40 38
46 46 49 48 49 51 50 49 48 46 46 49 50 50 50 46 46 46 47 44 44 45 38 39 38 37 37 37 38 37 38 37
39 43 46 44 42 40 39 39 40 43 43 44 48 49 48 47 46 46 45 43 42 40 39 40 39 37 37 37 37 38 38 37
32 34 35 37 37 37 36 36 36 38 39 41 44 47 48 47 45 45 46 43 41 41 40 39 38 39 37 36 37 38 37 37
31 30 31 32 34 34 35 34 35 35 37 38 39 42 45 46 45 43 43 44 41 41 40 38 38 39 35 35 31 31 34 37
30 30 31 33 34 34 34 35 35 35 35 35 36 39 41 45 45 44 42 43 42 41 40 39 37 38 38 33 32 29 33 34
34 35 36 36 38 37 37 35 35 37 37 37 37 38 39 41 45 44 42 41 42 41 40 39 37 35 37 38 35 34 24 23
39 39 39 39 38 39 39 38 39 40 40 39 40 40 39 39 40 42 42 41 40 40 38 37 34 33 30 32 32 34 34 28
39 39 39 39 39 39 38 37 37 37 37 39 40 40 38 38 39 40 38 37 34 34 35 33 32 33 33 33 32 28 26 27
39 39 38 39 39 35 34 34 35 35 35 37 38 38 34 35 35 36 37 38 39 40 39 38 38 38 37 36 35 36 35 33
39 39 38 39 38 33 34 35 35 35 35 36 36 34 35 38 39 40 39 39 40 40 40 40 41 40 38 37 37 36 36 34

GFSFLT2_sfc_dewp_009.txt.gz
Dewpoint
62 62 63 66 65 65 65 66 66 66 66 66 65 65 64 63 63 62 62 62 61 61 61 61 61 60 60 59 61 62 62 62
63 63 61 62 62 64 65 65 66 65 65 64 63 64 62 61 59 60 61 60 60 60 59 59 58 58 58 58 58 58 59 60
63 63 62 61 61 62 63 65 65 65 64 63 62 61 60 58 59 60 60 59 58 58 58 57 56 55 56 56 55 54 54 54
62 64 63 62 58 61 62 62 63 65 64 64 62 62 60 59 59 59 59 59 58 58 57 55 52 52 54 55 55 56 56 56
62 64 65 63 60 61 61 61 62 63 65 65 63 62 62 61 60 59 60 58 58 57 57 57 58 57 57 56 55 55 55 56
64 64 65 65 63 62 62 61 62 62 62 64 64 62 61 60 58 59 60 60 59 59 59 58 57 56 55 54 53 53 50 51
64 65 64 63 61 62 62 62 62 62 62 63 62 61 61 59 58 58 59 59 58 58 57 53 50 49 50 49 47 48 50 45
61 60 60 59 58 60 61 62 62 62 62 62 62 61 60 58 58 58 58 58 58 58 54 49 48 47 48 47 45 45 48 47
57 58 59 59 57 55 54 55 56 58 60 61 60 60 59 59 58 57 57 58 58 55 51 49 46 45 45 45 44 44 46 44
54 54 56 58 56 55 54 53 53 52 53 54 56 56 57 57 56 55 56 57 56 53 51 46 42 42 42 41 41 41 42 42
52 54 54 55 54 53 55 55 53 52 51 50 53 54 55 55 54 53 54 52 53 52 49 47 41 41 39 40 41 39 41 37
49 49 51 51 49 48 46 45 45 46 46 46 49 49 53 53 52 53 51 49 49 48 47 45 42 41 36 36 41 41 41 40
45 45 46 45 42 41 40 41 40 41 40 43 45 45 48 50 49 50 51 49 48 48 47 46 43 43 41 40 40 42 42 39
37 36 37 37 37 39 40 40 40 40 42 44 44 44 44 44 48 47 48 47 49 49 48 44 43 44 39 38 35 36 38 39
36 37 39 41 42 40 41 42 41 40 38 39 40 44 44 44 45 46 47 47 46 49 49 46 43 43 44 38 35 32 34 37
42 42 41 41 43 41 41 38 36 38 40 39 41 44 44 43 43 44 46 46 46 47 46 47 45 42 42 40 40 37 33 31
43 42 41 42 41 40 39 40 39 39 39 39 40 41 42 42 42 43 44 44 45 46 46 45 43 42 40 39 36 34 35 27
44 42 41 42 42 40 41 41 40 39 40 39 38 39 39 40 40 42 41 41 41 40 40 40 39 39 37 36 33 30 28 29
42 41 40 42 43 39 39 41 41 40 39 38 38 38 38 39 40 41 41 42 42 42 42 42 41 40 39 39 38 38 37 36
42 41 40 41 43 40 39 40 39 38 38 38 38 37 37 41 41 41 41 41 41 42 42 40 39 39 37 37 36 37 37 38

GFSFLT2_sfc_dewp_012.txt.gz
Dewpoint
57 57 62 66 65 66 66 66 66 65 65 65 65 65 64 63 62 62 61 61 61 61 61 61 60 59 58 58 59 60 60 59
58 60 58 60 60 64 65 65 66 64 63 63 63 63 61 61 58 60 60 60 59 59 59 58 58 58 58 57 57 58 56 57
60 59 60 61 59 60 62 64 65 65 64 62 61 59 59 57 59 59 59 58 58 58 57 55 54 55 56 56 57 52 54 52
61 63 62 62 56 61 61 60 61 62 62 63 60 62 61 59 59 58 58 58 56 56 57 56 54 48 50 55 49 52 50 50
61 64 65 63 59 58 57 57 59 61 64 64 62 62 61 60 59 56 57 57 54 54 54 51 54 53 50 52 50 51 47 48
61 63 65 65 59 57 58 57 58 59 60 64 63 60 60 60 57 55 55 53 56 54 53 56 55 52 50 48 47 45 42 45
62 64 65 62 62 59 60 61 58 60 60 60 63 60 59 57 56 54 53 52 52 53 52 51 49 46 44 45 43 43 45 41
62 64 64 59 57 60 59 60 58 59 57 57 62 61 58 55 53 50 49 49 50 51 50 49 46 45 43 45 43 42 42 44
61 63 60 58 56 55 55 53 54 52 52 56 59 59 56 56 52 50 49 50 53 53 52 50 47 43 42 42 42 43 41 43
58 57 56 56 54 53 52 51 52 50 51 52 55 55 56 55 51 51 51 52 50 49 49 47 46 43 41 39 39 40 41 42
55 57 53 52 53 51 52 54 52 48 49 47 49 51 52 53 50 50 53 51 50 49 48 48 46 42 39 39 40 39 39 36
54 53 51 52 50 50 45 45 45 45 43 42 45 45 48 50 49 51 52 50 49 48 49 47 46 44 36 35 39 40 40 39
47 48 45 45 42 40 40 41 40 41 42 45 47 46 46 48 46 47 48 48 49 51 49 49 47 46 44 41 40 42 44 40
40 39 40 40 39 41 43 44 43 43 43 44 43 44 43 42 45 45 45 45 47 49 50 49 48 47 44 41 37 37 39 41
40 42 43 44 43 41 41 41 41 39 39 38 39 41 40 41 42 43 45 44 43 45 47 47 45 47 48 44 38 36 36 38
43 43 41 42 44 41 43 39 38 40 40 39 39 41 40 39 40 43 44 43 44 44 42 46 46 44 45 45 47 44 38 36
45 43 42 42 41 43 41 42 41 40 40 41 39 37 37 37 39 43 43 43 44 46 47 46 45 45 43 43 44 43 43 39
45 42 41 43 43 42 43 43 42 40 38 37 35 35 35 37 38 42 44 43 44 43 44 44 43 43 42 41 39 37 37 36
43 42 40 41 42 41 40 41 41 40 38 36 36 34 35 38 41 42 42 44 43 42 42 41 40 39 38 38 38 37 37 38
44 41 39 38 40 39 40 42 41 38 38 36 36 36 37 40 42 41 41 41 40 41 43 42 39 39 38 38 38 38 38 37

GFSFLT2_sfc_dewp_015.txt.gz
Dewpoint
53 55 61 66 66 66 66 65 65 65 64 65 65 64 63 62 62 62 61 61 60 60 60 59 59 59 58 58 58 59 58 55
55 56 55 58 61 65 65 65 65 64 63 62 62 64 62 61 59 60 60 59 59 58 58 57 57 58 57 57 58 59 56 52
55 55 55 56 53 60 62 64 65 65 64 63 62 58 58 58 60 59 58 58 58 57 56 55 56 57 57 56 58 51 50 48
56 59 57 57 50 56 57 55 56 58 58 60 57 60 59 57 59 60 60 59 59 58 58 58 57 49 50 57 51 48 47 45
54 63 62 58 55 52 52 52 55 56 60 60 59 59 58 57 56 55 56 58 53 55 53 52 53 52 49 49 47 47 43 43
54 61 63 61 54 51 52 52 54 54 56 59 58 56 57 56 53 52 52 49 52 51 51 53 54 51 48 47 46 44 38 39
53 58 64 59 58 54 55 56 54 56 56 56 56 55 56 54 53 51 50 49 49 49 49 49 49 48 46 45 44 44 44 42
53 57 63 58 53 55 56 57 55 54 53 53 55 56 56 53 52 49 48 47 47 48 49 49 48 46 45 45 44 43 42 43
53 58 62 57 53 52 51 50 49 49 49 52 52 54 54 55 51 51 49 51 53 50 49 49 48 46 45 43 43 44 43 43
49 56 59 57 51 50 49 48 50 48 49 50 51 52 53 54 50 51 52 53 50 50 48 47 46 46 45 43 42 41 42 42
47 57 57 53 50 48 51 51 50 46 47 45 47 48 49 51 49 50 55 51 52 51 49 50 47 47 45 44 43 41 42 37
50 55 53 51 49 49 44 44 44 44 43 43 46 47 48 49 48 51 51 48 48 49 53 50 50 49 44 42 47 44 43 44
51 51 48 45 42 41 40 41 41 42 43 45 47 45 45 46 44 45 47 45 48 51 50 51 49 51 49 48 48 48 48 44
43 42 42 41 40 42 45 45 43 43 44 44 43 44 43 42 44 42 43 42 48 49 50 48 48 50 48 47 45 44 45 45
42 42 43 44 44 41 41 42 42 40 40 41 41 43 42 42 41 42 45 45 44 48 47 47 44 46 49 46 43 40 42 44
43 42 42 42 45 42 45 41 40 42 42 41 41 41 39 37 38 42 45 45 46 46 42 48 47 44 45 41 47 47 44 43
45 42 42 43 44 44 43 43 42 42 41 41 41 39 39 36 38 43 44 43 45 46 45 45 43 43 42 43 44 44 45 43
46 43 41 42 44 44 44 43 42 40 40 39 37 38 37 38 37 42 44 43 43 43 45 44 42 42 41 40 39 39 38 38
44 42 42 41 42 42 43 41 42 41 39 38 37 35 36 39 40 42 40 42 44 44 43 42 40 39 38 39 39 38 38 37
44 43 42 42 43 43 43 42 40 39 39 37 36 36 38 39 39 42 42 43 42 41 42 41 39 40 38 38 38 38 37 38

GFSFLT2_sfc_dewp_021.txt.gz
Dewpoint
62 63 65 65 65 65 65 66 66 66 66 66 65 64 64 64 63 62 61 60 59 58 59 59 60 60 61 61 60 60 57 53
58 61 62 63 63 65 64 64 64 64 64 64 64 63 63 63 63 63 61 60 59 58 59 59 60 60 59 59 60 60 52 52
58 58 60 60 61 63 64 65 64 64 63 63 63 62 62 61 62 62 62 61 61 60 60 59 59 59 58 59 59 56 53 49
55 55 58 60 57 61 62 62 63 62 62 62 61 61 61 60 61 61 61 61 61 61 61 61 60 56 54 58 56 54 49 47
58 56 55 55 54 59 61 61 61 61 61 58 57 60 59 57 59 59 59 61 59 59 59 58 57 56 52 52 50 47 46 45
59 58 56 57 55 55 56 55 57 59 59 57 57 57 54 55 53 52 53 54 56 53 53 52 52 52 53 51 48 46 46 45
59 60 58 57 55 56 55 58 57 56 57 57 56 56 55 55 55 53 53 52 51 50 50 49 50 50 49 49 48 46 46 46
61 63 63 59 56 54 55 56 56 57 55 55 55 55 55 55 53 54 53 53 53 52 50 51 51 51 50 49 48 46 44 45
62 61 58 62 57 53 53 54 48 52 52 53 53 53 52 52 53 53 54 54 53 52 52 52 50 50 49 49 49 48 46 45
59 62 58 61 57 51 51 50 50 49 51 53 52 53 52 52 51 51 53 53 52 51 52 51 51 50 49 49 49 48 46 46
58 62 61 59 55 51 52 50 48 49 47 49 49 51 51 49 49 49 50 51 50 50 49 50 49 48 47 47 48 47 48 46
51 54 55 55 51 48 48 48 48 48 48 48 47 48 47 46 46 46 46 46 46 46 45 45 46 47 44 45 48 49 49 48
47 48 46 46 45 45 45 45 45 45 46 45 48 46 46 45 46 45 45 44 44 44 45 45 43 46 43 43 46 47 47 48
44 44 44 45 45 45 46 45 46 46 46 46 47 45 44 41 43 43 43 44 44 44 43 42 43 44 43 43 41 41 42 43
43 44 44 45 45 45 45 45 45 44 44 44 43 43 41 41 41 42 43 43 43 43 43 43 44 44 44 42 40 40 38 42
43 43 43 46 45 44 44 44 43 44 44 43 41 41 40 39 40 41 42 42 42 43 45 43 42 40 41 40 40 39 35 34
44 44 44 44 45 45 44 43 44 44 43 41 39 39 40 39 39 41 42 44 44 43 43 42 41 41 39 39 37 37 37 35
44 44 43 45 44 45 45 43 42 41 40 39 39 39 39 39 41 42 43 42 42 42 41 39 39 39 38 38 38 35 34 34
43 43 42 44 45 45 43 42 41 39 38 37 37 38 37 38 39 42 41 41 41 40 40 40 40 39 37 37 37 36 36 35
43 42 41 43 43 42 42 41 41 39 37 37 37 38 38 37 38 40 41 41 40 39 39 39 39 38 37 38 38 38 38 37

GFSFLT2_sfc_dewp_024.txt.gz
Dewpoint
63 65 65 66 65 65 65 66 67 66 66 65 65 65 65 64 63 61 60 59 58 58 59 60 60 60 60 59 59 60 55 51
61 62 62 62 63 65 65 65 65 65 65 64 63 63 63 64 63 63 62 60 59 60 60 60 60 60 59 59 59 59 53 52
59 60 60 61 62 63 64 64 64 64 63 63 63 61 61 60 62 61 62 61 61 61 61 60 60 59 59 59 60 54 53 48
56 58 59 59 59 61 61 62 62 61 61 61 61 60 61 60 61 62 63 62 61 61 62 62 61 57 55 56 53 52 50 45
57 58 60 58 57 60 60 61 61 61 61 61 60 60 60 60 59 59 58 59 58 58 58 57 57 56 55 53 51 49 46 45
55 56 57 56 56 58 59 60 60 61 60 57 56 55 54 54 53 52 53 52 54 53 54 51 51 51 52 52 51 48 46 45
58 57 56 55 55 56 56 57 59 58 57 56 56 55 53 54 54 53 53 52 51 51 51 50 50 50 50 49 49 49 47 46
61 61 61 58 55 55 55 57 55 57 56 55 55 56 54 54 52 53 52 53 53 52 51 51 51 51 51 51 50 49 47 45
61 61 59 60 56 54 54 54 54 54 53 54 54 53 52 52 52 50 51 52 51 51 50 51 50 49 49 49 49 49 49 47
60 60 58 58 59 53 52 49 49 50 52 53 52 52 51 50 48 48 49 48 47 48 48 47 46 47 47 46 48 48 48 47
60 58 56 59 55 51 52 51 49 49 49 49 50 50 49 47 46 47 46 45 45 46 44 45 44 44 42 42 44 47 47 47
58 57 57 56 51 48 50 47 47 48 47 47 46 46 46 45 45 45 45 44 44 44 43 44 44 42 41 42 44 46 47 48
49 49 47 47 48 47 45 45 45 46 45 45 43 42 42 41 42 42 43 43 43 43 44 42 40 42 43 42 43 44 44 44
45 46 44 44 45 45 45 45 45 45 45 42 42 41 41 38 41 41 41 41 41 41 41 41 42 44 42 42 39 40 41 37
43 43 43 44 45 44 44 44 44 44 43 41 40 41 40 40 40 41 42 42 42 42 43 42 42 42 41 40 37 35 35 36
43 43 44 44 44 44 43 42 42 43 42 40 39 40 40 39 42 43 43 43 42 43 43 43 42 40 41 38 39 39 34 31
43 44 44 45 45 45 44 43 43 42 40 38 38 39 39 40 41 42 42 41 41 40 40 39 40 38 38 37 37 37 36 34
43 42 44 45 44 43 42 41 40 38 37 37 37 38 39 39 39 42 41 40 40 39 38 38 38 38 37 36 36 35 33 33
43 42 43 44 44 42 41 40 38 36 36 36 35 37 37 37 38 39 40 40 40 40 39 38 37 36 36 36 36 37 37 35
42 41 41 42 42 40 40 40 39 37 36 36 38 37 36 36 37 39 40 40 39 39 38 37 36 36 35 36 37 39 39 37

GFSFLT2_sfc_dewp_027.txt.gz
Dewpoint
64 65 66 67 66 66 66 66 66 66 66 66 65 65 64 64 63 61 59 58 58 59 60 60 60 60 60 60 60 60 52 51
62 62 63 62 63 65 65 65 65 65 65 64 63 63 64 64 63 63 62 60 60 61 60 60 61 61 61 60 60 57 52 49
60 61 61 61 61 62 64 64 64 64 64 63 62 60 60 60 62 62 62 61 61 61 62 62 61 61 60 59 59 52 51 48
59 59 59 59 59 61 61 62 62 61 61 61 61 60 60 60 61 62 63 63 63 62 62 62 60 57 55 57 53 51 50 46
57 57 58 58 58 60 60 60 61 61 61 61 60 60 59 60 59 58 57 57 56 57 55 55 53 54 54 53 52 51 49 46
56 57 58 57 57 59 58 59 60 60 60 60 58 56 54 54 53 52 52 52 51 51 51 50 50 50 50 50 50 50 49 47
55 57 58 57 56 57 58 59 60 60 60 57 56 54 53 53 53 53 52 52 52 51 50 50 50 50 50 49 49 50 49 48
57 57 57 55 55 55 56 57 58 58 57 56 55 55 53 53 52 51 50 51 50 49 49 48 47 48 47 47 47 48 49 48
59 59 60 57 55 54 55 55 55 56 54 54 54 53 52 51 49 48 48 47 46 46 45 45 45 45 45 46 46 46 46 47
60 61 58 58 57 52 52 49 50 50 52 52 51 50 48 46 46 46 46 45 45 45 44 44 44 43 43 42 43 44 45 46
60 59 59 57 54 53 49 48 48 48 48 46 46 45 46 44 44 44 44 43 44 44 42 43 42 40 39 40 42 43 46 46
57 58 58 54 51 48 47 46 45 46 44 42 42 42 42 41 41 42 42 41 41 41 41 42 41 41 43 43 43 44 44 43
51 51 49 51 50 49 46 47 45 44 41 42 41 41 41 41 41 41 42 41 41 42 41 41 41 43 42 39 42 42 40 37
45 45 44 44 45 46 45 45 44 43 41 41 41 41 39 40 41 42 42 42 42 43 42 42 42 42 39 39 35 33 37 34
42 43 43 44 45 44 44 44 44 42 40 39 39 40 40 41 42 42 42 42 41 41 41 40 39 41 40 37 34 32 34 34
43 43 43 44 44 43 42 41 42 42 39 38 38 39 40 40 41 42 41 41 40 40 40 39 38 37 38 38 37 36 34 30
43 44 44 44 44 44 44 42 41 40 39 37 37 38 39 38 40 41 40 40 39 38 38 37 38 38 36 36 35 35 34 35
42 44 44 44 43 43 42 41 39 37 36 36 36 37 38 37 38 41 39 39 39 38 38 37 36 36 36 35 36 35 33 34
42 43 43 43 42 41 40 39 38 36 36 36 35 36 36 35 36 39 39 39 39 39 37 36 35 34 34 34 34 35 38 36
41 42 42 42 41 40 40 39 38 37 36 36 36 37 36 36 34 39 39 39 39 38 37 36 35 34 33 33 34 35 36 36

GFSFLT2_sfc_dewp_030.txt.gz
Dewpoint
65 66 67 68 67 67 66 66 66 66 66 65 65 64 64 63 62 61 61 61 61 62 62 62 62 62 61 61 61 59 51 49
62 63 63 63 64 65 65 65 65 65 65 64 63 63 63 63 62 61 62 62 63 63 63 63 62 62 61 61 60 56 51 49
60 61 60 60 61 63 65 65 64 64 63 63 62 60 59 59 62 63 63 63 63 63 63 62 61 59 59 60 57 52 51 49
59 59 59 59 59 61 61 62 62 61 61 61 60 59 59 60 60 61 61 60 59 59 58 58 55 53 53 54 52 52 51 50
58 58 58 58 58 60 59 60 60 60 60 60 59 59 59 59 58 56 54 54 52 52 52 51 50 51 51 51 50 50 51 50
56 57 57 57 57 59 58 59 59 60 60 60 59 57 55 54 52 52 52 52 51 51 51 50 49 49 48 48 48 48 49 49
55 57 57 57 56 58 57 58 59 59 60 59 57 53 53 53 52 52 51 50 49 48 47 46 46 46 46 46 46 47 48 47
56 57 58 57 56 56 57 58 58 59 58 56 55 54 53 52 49 48 47 47 46 46 45 45 44 45 43 44 44 45 45 46
57 59 58 57 54 54 56 56 56 56 53 53 52 51 48 46 45 45 45 45 44 44 43 44 43 43 42 42 43 43 44 45
60 59 58 57 56 56 54 53 53 50 49 47 46 45 44 43 42 43 43 43 42 42 42 42 41 41 40 40 41 43 45 46
59 59 57 56 53 52 49 49 47 44 43 42 42 43 43 42 42 42 42 41 42 42 41 42 41 41 42 43 43 43 45 41
59 56 55 54 53 51 47 45 43 42 42 42 41 42 43 42 42 42 42 42 43 43 42 42 41 42 42 41 41 43 41 39
57 53 53 54 51 47 45 45 42 41 40 41 41 41 41 41 42 42 42 41 41 42 42 41 41 41 40 37 39 41 37 36
53 52 52 47 46 45 44 43 41 40 40 40 39 40 41 41 41 41 40 39 39 41 40 39 40 40 38 37 33 33 35 33
43 43 43 44 45 44 44 43 43 39 38 38 39 40 41 41 40 39 39 40 39 39 38 37 37 38 38 36 32 30 32 34
43 43 43 43 43 43 42 41 41 41 38 38 37 39 39 39 40 39 39 40 38 39 39 38 37 35 36 38 37 36 31 29
43 44 44 44 43 43 43 41 40 39 38 37 37 38 39 38 38 39 39 39 38 38 37 37 37 36 35 35 35 34 34 33
44 44 44 44 43 43 41 39 38 37 37 36 36 37 38 37 37 39 39 38 38 38 37 36 36 35 35 34 34 33 32 33
43 43 43 43 42 41 40 39 38 37 36 36 35 35 36 37 35 38 39 39 38 38 37 36 35 34 33 33 33 34 35 34
41 41 42 41 41 40 40 39 38 38 36 36 36 35 36 36 35 35 38 38 38 38 37 36 35 34 32 32 33 34 34 34

GFSFLT2_sfc_dewp_033.txt.gz
Dewpoint
67 67 68 68 68 67 67 66 66 66 66 66 65 64 64 63 63 62 62 62 62 62 62 63 62 62 61 61 60 58 52 50
66 67 67 67 66 66 65 65 65 65 65 64 63 62 63 63 62 63 63 63 63 62 63 62 60 59 60 60 58 57 52 51
65 64 65 65 64 64 64 65 64 64 63 62 61 60 60 60 62 63 63 61 61 60 60 58 57 57 58 58 56 51 52 51
62 63 62 62 59 63 63 62 61 61 61 62 61 62 61 61 61 61 59 58 57 57 56 56 53 49 48 51 46 49 48 49
59 61 61 60 59 61 60 61 61 62 62 62 62 62 62 62 59 55 56 55 52 52 50 48 50 47 46 46 44 44 44 43
58 59 60 60 59 59 60 60 61 61 62 63 63 60 58 56 55 54 53 51 51 49 47 49 48 46 45 44 44 41 38 38
57 59 59 59 59 60 60 60 61 61 62 60 58 56 57 54 52 49 48 48 47 47 46 45 45 44 43 42 41 42 43 41
57 59 60 59 58 59 60 61 62 62 60 59 59 57 54 50 48 46 44 44 44 43 43 42 41 41 40 42 42 43 44 46
59 59 59 57 58 57 56 57 59 58 57 55 53 50 50 48 45 44 43 43 44 43 42 41 40 40 42 42 43 42 43 46
60 59 57 57 56 55 55 54 54 53 53 49 48 48 47 46 43 43 44 44 43 42 42 39 41 41 40 40 39 38 44 42
60 59 57 57 54 54 52 50 49 46 45 44 46 45 46 44 43 44 44 42 42 40 38 41 39 38 33 37 35 32 44 37
58 58 57 55 54 52 48 45 44 44 44 42 43 43 45 44 43 43 40 38 38 39 40 39 41 39 32 33 33 36 41 38
57 55 55 55 53 48 44 45 43 42 41 43 43 43 43 43 39 40 39 37 40 41 38 38 34 38 34 31 34 43 38 36
57 57 54 51 47 46 46 43 42 41 41 42 42 43 42 41 41 39 40 37 39 40 39 34 35 39 34 32 26 26 35 31
54 52 51 49 47 46 44 43 42 40 40 39 41 42 40 41 41 40 41 40 37 40 39 35 31 34 36 32 26 23 29 30
49 48 46 47 47 46 46 44 43 42 41 41 40 42 41 39 40 41 41 41 39 37 37 37 36 31 32 33 35 33 26 23
47 46 45 46 45 46 46 45 43 41 42 41 42 41 42 40 40 41 41 40 39 40 40 40 38 35 32 32 32 30 30 29
47 46 46 46 46 46 46 45 43 42 42 41 41 40 40 41 39 41 42 41 41 40 41 40 39 37 35 34 32 29 26 29
46 46 44 45 45 45 44 44 44 42 41 40 40 39 38 39 41 41 40 41 41 41 41 40 39 38 36 33 34 33 34 34
45 44 44 43 43 43 43 43 42 41 41 40 39 39 39 41 40 39 38 39 41 41 39 39 41 40 38 37 36 35 35 32

GFSFLT2_sfc_dewp_036.txt.gz
Dewpoint
65 66 68 69 68 68 67 67 67 67 66 66 65 64 64 63 63 63 63 62 63 62 62 61 60 60 60 59 58 58 49 47
61 62 62 63 64 66 66 65 65 65 65 64 63 63 64 62 64 63 63 62 62 61 59 58 58 58 58 58 58 59 47 46
60 60 61 60 58 62 64 65 65 64 63 63 61 58 58 58 62 62 60 60 60 58 57 57 58 57 55 55 57 45 45 43
61 61 60 60 55 59 59 57 58 60 59 60 59 62 61 58 60 60 58 58 58 57 56 57 53 44 44 51 43 45 42 41
56 60 60 57 56 56 56 58 60 61 62 62 63 63 64 61 58 56 57 56 52 52 49 46 49 47 45 46 44 43 40 39
55 57 59 59 56 56 58 58 60 61 62 64 64 61 61 59 55 55 55 52 51 49 48 49 48 47 46 46 45 43 40 40
55 57 57 58 59 59 60 62 61 63 63 63 61 59 59 56 55 52 51 49 48 47 46 45 45 44 44 43 42 43 43 40
57 57 59 58 59 61 62 62 63 63 63 62 60 60 58 54 52 49 47 46 45 45 45 44 43 42 41 42 42 41 40 42
58 60 61 60 59 59 61 60 60 60 60 59 58 56 55 52 49 46 46 46 47 44 43 39 38 36 36 34 37 36 35 40
60 60 60 59 60 59 58 56 56 57 57 55 53 51 49 48 46 46 47 44 40 37 36 35 33 34 33 29 33 31 30 40
60 61 60 60 60 56 56 55 51 49 49 47 48 47 48 47 45 44 43 39 39 36 34 36 34 34 30 28 31 29 29 32
60 61 60 58 57 57 50 48 46 46 44 44 45 46 47 45 41 42 38 35 35 36 37 35 34 35 28 28 31 32 34 36
60 59 58 58 56 54 49 45 45 45 44 45 46 45 42 41 37 38 37 37 37 37 34 34 32 36 32 28 27 33 37 33
60 59 60 57 55 50 48 47 45 44 44 45 45 42 40 37 38 37 38 34 37 38 38 35 31 33 34 30 24 24 25 30
58 59 58 54 50 48 47 46 45 43 43 43 43 42 39 39 39 38 39 38 35 38 38 37 33 33 34 31 27 23 26 27
56 54 52 50 49 46 46 43 42 44 44 44 40 42 41 37 37 40 40 39 39 38 34 39 36 33 32 29 33 31 26 25
52 50 48 48 48 48 47 46 46 44 44 42 42 42 41 39 39 40 40 39 40 41 40 38 36 34 34 30 29 28 28 25
49 47 46 47 48 48 48 47 44 41 40 38 35 37 37 38 39 42 42 42 42 41 40 39 38 38 35 32 29 27 25 25
48 46 46 47 48 47 46 43 40 38 38 37 39 37 37 38 41 41 40 40 41 41 41 39 39 38 37 34 30 29 29 29
46 45 44 45 45 43 42 40 40 39 39 40 39 38 37 37 36 35 35 35 37 40 39 38 37 37 37 36 31 29 28 27

GFSFLT2_sfc_dewp_039.txt.gz
Dewpoint
65 66 68 69 68 67 67 67 67 67 67 65 65 65 65 64 63 63 63 63 62 62 60 60 59 59 58 59 59 60 51 44
63 64 63 65 65 66 66 66 66 66 65 64 64 63 63 64 64 63 62 62 61 59 58 58 58 57 56 57 58 58 45 42
57 57 59 58 58 62 64 66 65 64 63 63 61 56 58 59 62 61 60 60 59 57 57 56 57 57 55 53 56 44 44 41
57 59 59 58 51 58 58 58 58 59 58 60 59 59 60 58 59 60 59 58 58 56 56 55 55 46 46 53 45 46 44 42
56 59 60 56 56 55 54 57 59 60 61 60 62 60 60 59 57 55 56 56 52 52 50 48 51 49 48 48 47 46 43 42
53 55 57 56 54 54 56 56 58 59 60 62 61 59 60 58 54 54 55 51 53 51 49 51 50 48 47 47 46 44 42 42
51 55 57 58 58 59 58 60 64 65 65 63 62 59 60 57 56 53 52 50 49 49 48 47 47 46 45 44 43 43 43 39
54 54 57 57 60 61 64 66 65 63 63 63 62 60 61 57 55 51 49 48 48 47 47 43 41 41 40 39 37 37 39 38
57 59 59 60 60 60 60 59 58 60 61 60 60 59 58 55 51 48 48 48 49 43 41 39 37 35 37 34 32 33 33 32
58 59 60 60 60 59 58 57 57 57 58 58 57 53 52 53 49 48 48 45 42 40 37 35 35 34 35 32 29 30 33 33
59 60 59 59 58 58 57 57 57 52 53 50 50 49 49 49 47 45 44 39 39 38 35 35 33 32 31 31 31 30 32 28
60 59 61 59 59 58 56 55 52 50 48 46 47 47 47 46 43 44 41 38 38 37 38 35 34 32 28 32 33 30 30 37
59 59 59 59 56 55 53 51 47 47 45 47 48 47 43 43 40 40 40 36 37 40 38 38 35 35 31 32 32 34 32 29
60 59 59 58 52 54 54 50 47 47 46 48 47 44 41 39 41 39 39 37 38 39 40 37 36 35 32 31 28 28 28 30
59 58 58 56 56 51 49 48 47 45 45 46 44 42 40 39 39 39 39 39 37 39 39 38 33 34 35 31 28 26 27 28
57 55 54 52 50 48 48 43 42 44 44 44 44 43 41 38 37 39 41 39 39 39 35 39 37 33 33 29 34 31 26 25
54 53 50 48 48 47 47 46 47 46 46 45 44 42 40 38 39 40 41 39 40 42 42 42 38 36 35 36 35 32 30 29
51 49 47 48 48 49 48 47 44 43 43 40 37 35 35 37 37 40 40 39 39 39 40 38 39 40 38 39 35 33 29 28
49 46 46 47 48 48 47 45 43 39 39 37 36 35 35 37 39 37 35 35 35 36 38 39 40 41 38 35 37 35 33 30
47 46 46 47 47 45 44 41 39 38 37 37 36 35 34 35 33 33 33 32 33 35 35 38 38 41 39 35 32 35 32 30

GFSFLT2_sfc_dewp_042.txt.gz
Dewpoint
67 67 69 68 67 67 67 67 67 66 66 65 65 65 65 65 65 64 63 63 62 60 60 60 59 57 57 57 58 59 52 46
66 67 66 66 64 66 66 65 65 65 64 64 63 63 64 65 64 63 62 61 60 58 58 58 58 56 55 54 56 57 45 43
63 63 64 63 63 64 65 66 65 64 63 63 62 58 60 61 62 62 61 60 59 58 57 56 57 57 56 53 57 48 47 45
60 62 62 60 56 61 61 61 60 60 60 61 61 63 61 59 60 60 61 59 58 57 55 56 56 51 51 54 49 50 47 46
58 61 61 56 57 58 59 60 61 63 63 63 63 63 61 61 59 57 59 59 57 55 54 52 52 52 51 50 49 47 46 45
58 58 61 60 57 58 60 60 62 63 64 63 64 63 61 60 59 58 57 56 54 54 53 52 51 50 49 48 47 46 44 44
55 58 60 60 61 62 62 62 64 64 65 64 64 63 62 60 58 57 55 53 52 51 50 48 48 45 46 45 41 40 41 42
55 57 61 61 63 63 63 64 65 64 63 63 63 62 61 60 55 52 51 51 50 49 47 47 43 43 40 42 40 38 36 40
56 59 62 62 61 60 58 58 60 60 60 61 60 60 58 54 53 52 52 50 48 46 43 42 41 38 37 38 37 32 35 38
57 59 61 60 59 58 58 58 58 58 58 59 57 55 54 53 51 50 49 49 45 44 43 39 39 38 36 37 37 34 34 35
60 61 59 58 58 58 58 58 57 57 57 53 52 51 52 51 51 47 48 45 45 42 41 41 38 37 33 33 37 36 34 30
60 59 60 59 59 59 58 57 56 54 51 49 50 50 51 50 48 47 45 42 42 42 42 41 41 40 33 33 37 36 34 35
60 60 59 59 57 55 54 53 51 51 48 50 51 50 47 45 46 44 43 42 42 41 41 40 40 40 36 34 35 35 33 33
60 59 59 58 55 54 54 52 50 49 49 51 51 48 45 44 44 43 43 42 42 43 42 41 39 40 36 35 31 31 33 31
59 59 58 58 54 56 55 52 51 50 49 50 49 47 44 43 42 42 43 43 42 42 41 41 38 38 38 36 31 29 31 32
60 59 57 57 57 52 51 47 46 47 48 49 46 46 45 42 41 42 43 44 43 43 39 42 40 37 38 36 36 35 31 29
60 58 54 54 52 52 51 50 49 49 49 49 47 48 46 43 43 43 43 43 43 43 43 41 41 40 38 37 37 37 35 32
57 54 52 51 51 52 51 51 48 48 47 47 46 43 41 42 43 43 42 41 39 39 39 38 38 39 40 39 38 36 34 33
54 51 48 50 51 51 51 49 47 44 43 42 40 40 41 41 40 38 38 38 38 38 37 38 38 39 39 39 37 36 36 34
51 49 47 49 51 50 49 46 45 44 44 41 40 39 39 38 37 37 37 36 36 36 37 37 37 40 38 39 38 36 36 34

GFSFLT2_sfc_dewp_045.txt.gz
Dewpoint
65 67 67 67 67 67 66 66 65 65 65 65 65 65 65 65 65 64 63 62 61 60 59 58 58 57 59 58 58 58 45 49
66 66 65 64 64 65 65 65 65 64 64 64 64 64 64 64 63 63 63 61 60 58 58 57 57 56 58 59 56 55 46 47
65 64 63 63 63 64 65 65 63 63 63 63 62 60 61 62 61 62 62 60 58 59 57 56 58 57 59 59 55 48 46 47
63 63 62 61 61 62 62 62 60 60 60 60 59 59 60 58 60 61 61 60 58 58 56 57 55 50 49 53 48 46 45 45
62 62 60 56 59 59 60 60 60 59 59 60 61 61 60 60 57 58 57 59 55 54 52 50 48 49 50 47 47 45 43 44
57 56 55 56 58 58 58 59 61 62 64 63 63 62 61 60 58 58 54 53 50 50 48 46 46 43 43 45 41 39 40 42
55 56 55 56 58 61 62 63 63 64 63 62 62 61 60 56 52 51 51 49 48 47 43 44 42 42 39 41 37 36 35 39
55 57 57 62 62 62 62 63 62 62 61 61 60 58 54 52 51 50 49 47 46 43 41 40 39 38 36 38 37 33 32 36
55 58 62 60 58 58 58 60 60 60 60 59 58 54 53 51 51 48 47 47 42 42 40 38 38 37 35 35 36 34 35 36
56 60 59 58 57 57 57 57 58 58 57 56 54 53 52 50 48 45 46 44 43 41 39 38 37 37 36 34 36 35 35 33
59 58 57 57 57 56 56 56 56 56 54 51 50 51 50 49 45 43 45 44 42 40 39 39 38 38 35 33 35 36 33 34
58 58 57 57 57 56 56 54 54 53 50 49 48 49 49 46 45 43 42 41 40 39 39 40 39 39 36 34 34 35 35 34
58 57 57 57 56 54 53 52 51 49 47 48 49 49 45 45 45 43 41 40 38 40 39 38 38 38 35 34 34 34 31 33
58 57 57 57 56 54 53 50 48 47 47 47 49 47 44 42 41 41 40 39 40 40 39 39 39 38 35 34 32 32 33 33
58 58 57 57 57 53 53 50 48 48 47 48 47 44 42 42 41 41 40 41 40 40 40 39 38 38 37 36 32 29 32 32
58 58 58 58 55 54 52 48 47 47 47 48 44 44 43 41 40 40 41 42 40 41 41 40 40 37 38 37 36 35 32 31
58 58 58 57 56 53 50 48 47 48 48 46 45 45 44 41 42 42 40 41 38 36 35 36 37 37 37 37 36 36 35 33
59 58 57 55 53 50 48 48 47 47 47 46 46 45 43 41 39 37 37 36 35 36 35 35 36 36 37 38 37 36 36 36
58 58 52 50 49 49 49 45 44 44 44 43 40 39 39 36 35 35 35 35 34 35 35 35 35 36 37 38 39 37 37 37
55 51 49 49 48 49 47 42 42 41 42 40 40 39 37 35 35 34 33 34 34 34 35 35 36 36 36 37 38 38 37 36

GFSFLT2_sfc_dewp_048.txt.gz
Dewpoint
64 64 66 67 67 66 65 65 65 65 65 65 65 65 65 65 65 64 63 62 61 61 60 59 59 59 60 58 58 56 47 49
62 64 65 65 64 65 65 65 65 64 64 64 64 64 64 64 64 64 63 61 60 59 58 58 58 58 59 59 56 54 47 49
62 63 64 64 63 64 64 64 64 63 63 63 62 61 60 59 61 62 62 60 58 58 59 58 57 56 58 57 53 45 44 49
63 62 63 62 61 62 61 60 60 60 60 59 58 60 61 58 60 61 60 59 58 59 57 55 51 48 49 51 46 42 41 46
63 62 61 60 60 61 60 59 58 58 58 58 59 60 60 58 58 57 56 56 50 49 47 46 43 43 44 43 39 38 39 40
63 61 58 57 58 58 58 58 60 60 61 61 61 61 60 58 56 54 52 50 48 45 45 43 41 39 39 40 37 35 34 40
61 59 55 57 57 58 60 61 62 62 62 61 62 60 58 53 51 50 49 47 44 41 40 39 39 36 36 37 35 33 33 37
59 56 55 59 61 61 62 62 62 61 60 59 59 56 51 50 49 48 46 44 42 40 37 37 37 36 35 36 35 34 35 34
56 60 61 60 60 61 60 60 59 59 58 57 54 53 52 50 48 47 46 42 41 38 38 37 37 37 35 35 35 35 35 33
60 60 58 58 57 58 58 58 58 57 57 55 53 52 50 47 45 45 46 43 40 39 38 37 37 37 35 33 34 35 33 34
59 58 57 57 57 56 55 56 56 55 53 51 51 51 49 45 44 44 43 42 40 39 39 38 37 37 36 34 34 34 34 33
58 57 57 56 56 55 54 53 53 52 49 48 49 50 47 45 44 43 42 40 39 39 38 38 38 38 36 34 34 34 34 33
57 56 56 56 55 53 52 51 52 49 48 48 49 48 47 45 44 42 41 38 40 40 39 37 37 38 35 35 34 35 31 32
57 56 56 55 55 53 53 51 50 47 47 48 49 45 44 43 42 40 39 40 39 39 38 38 38 38 35 34 33 33 33 33
56 56 56 56 55 53 50 49 47 46 46 46 48 45 43 42 42 40 40 40 39 39 39 38 37 38 37 35 32 31 32 33
56 56 56 56 56 53 49 47 46 47 46 47 46 44 43 42 41 41 42 41 40 40 37 36 37 33 36 37 36 34 32 32
57 56 56 56 56 53 50 48 47 47 47 47 45 44 43 42 42 41 39 38 36 35 34 34 35 35 34 36 35 35 34 32
58 57 57 58 57 53 51 48 47 47 47 45 44 44 42 40 37 37 36 35 34 34 33 33 33 34 35 36 36 35 35 36
58 57 57 57 56 53 51 48 47 47 47 46 42 39 38 37 36 35 35 34 34 34 33 34 35 35 35 37 38 37 37 38
58 58 56 54 52 50 48 46 46 46 44 42 40 39 38 37 38 36 34 34 34 36 36 36 34 35 34 34 36 36 37 36

GFSFLT2_sfc_dewp_051.txt.gz
Dewpoint
64 65 65 66 66 66 65 66 66 66 65 65 65 65 65 65 64 63 63 62 61 61 61 61 60 59 59 58 58 55 49 51
62 64 65 64 63 65 65 65 65 65 65 65 64 64 65 64 64 63 62 61 61 61 60 60 60 59 59 57 54 52 48 49
59 61 64 63 63 63 64 65 65 64 64 63 62 61 60 58 62 62 61 60 61 60 58 57 56 56 57 54 48 41 46 49
56 56 61 63 62 62 61 61 61 61 60 60 60 60 58 59 61 61 61 60 58 57 55 52 47 44 43 44 38 36 39 45
59 57 60 61 60 61 60 59 59 59 58 59 59 60 58 58 56 56 53 51 46 45 43 41 39 40 41 37 34 34 37 41
62 61 61 60 60 60 59 57 58 58 58 59 60 60 57 56 56 53 49 47 43 43 42 40 37 37 37 36 34 34 35 36
62 61 59 58 58 58 58 59 60 61 61 61 61 60 58 54 51 49 47 43 41 39 38 37 36 35 36 35 34 34 34 34
62 59 57 57 58 58 59 61 61 60 60 60 59 56 52 50 48 46 44 42 39 37 36 36 36 35 35 35 34 34 33 34
61 58 56 58 59 60 60 60 60 59 58 56 54 53 51 49 47 45 43 40 38 38 38 37 37 36 34 34 34 34 33 34
58 57 58 59 59 58 58 58 58 57 55 53 53 52 50 47 46 45 43 41 39 38 38 37 37 37 34 34 33 34 33 32
57 59 58 57 56 56 56 56 56 55 53 52 51 49 47 45 45 44 42 40 40 39 39 38 36 37 36 34 33 33 33 31
59 58 57 56 55 54 54 54 53 52 51 50 49 48 45 44 43 43 41 40 39 39 38 38 37 37 36 34 35 34 33 32
58 56 56 56 54 53 52 52 51 49 48 48 49 47 45 43 42 41 39 38 39 38 38 36 38 38 35 35 34 34 32 32
57 56 56 56 55 53 52 51 51 48 48 48 48 47 45 43 41 40 39 41 39 38 38 38 38 38 35 34 32 33 33 34
57 56 56 55 54 52 50 48 48 46 46 47 48 44 45 43 41 40 40 40 39 39 38 37 35 36 36 33 28 29 32 34
57 57 56 55 54 52 49 48 47 46 46 46 48 45 43 42 41 40 41 41 40 38 36 36 35 31 34 36 35 34 32 31
56 57 56 56 54 53 51 48 47 47 46 46 46 44 43 41 41 41 40 38 35 34 34 33 34 33 33 34 34 34 33 32
56 56 56 56 55 54 51 49 47 46 46 46 44 43 42 41 39 38 37 36 34 33 33 32 33 34 35 34 35 34 34 33
57 56 56 56 56 55 53 49 47 47 46 46 43 40 37 37 38 39 37 35 35 34 34 35 35 34 34 36 36 36 36 36
58 57 56 56 56 55 53 50 48 47 47 45 41 38 38 38 40 39 36 35 36 37 36 35 33 34 33 33 34 34 34 35